When you browse on this site, cookies collect data to enhance your experience and personalize the content and advertising you see.
Visit our Privacy Policy to learn more. By continuing to use the site, you agree to this use of cookies and data.
  • In Belgium
  • List of Countries
  • For 7 days
  • Water Temperature
  • Satellite Maps
  • Weather Map
  • Weather Widgets
  • user-avatar
    Login

    Hourly Weather Gremyachiy Kolodez

    Today, 16 June, Sunday

    Time Temperature Precipitation Wind Pressure Humidity
    00:00 +18°C° 0 mm 3 mps 743 mmHg 94%
    01:00 +17°C° 0 mm 3 mps 743 mmHg 95%
    02:00 +17°C° 0 mm 2 mps 743 mmHg 95%
    03:00 +17°C° 0 mm 2 mps 743 mmHg 98%
    04:00 +17°C° 0.1 mm 2 mps 743 mmHg 97%
    05:00 +17°C° 0.1 mm 3 mps 743 mmHg 96%
    06:00 +17°C° 0.1 mm 3 mps 742 mmHg 95%
    07:00 +18°C° 0 mm 3 mps 743 mmHg 91%
    08:00 +19°C° 0 mm 3 mps 743 mmHg 87%
    09:00 +19°C° 0 mm 2 mps 744 mmHg 83%
    10:00 +20°C° 0 mm 2 mps 743 mmHg 78%
    11:00 +21°C° 0 mm 2 mps 743 mmHg 73%
    12:00 +23°C° 0 mm 2 mps 743 mmHg 67%
    13:00 +23°C° 0.4 mm 2 mps 743 mmHg 66%
    14:00 +24°C° 0.4 mm 1 mps 743 mmHg 65%
    15:00 +24°C° 0.4 mm 1 mps 743 mmHg 64%
    16:00 +24°C° 0.3 mm 1 mps 743 mmHg 66%
    17:00 +24°C° 0.3 mm 2 mps 743 mmHg 69%
    18:00 +23°C° 0.3 mm 2 mps 743 mmHg 71%
    19:00 +21°C° 0 mm 2 mps 743 mmHg 77%
    20:00 +20°C° 0 mm 2 mps 744 mmHg 82%
    21:00 +19°C° 0 mm 1 mps 744 mmHg 87%
    22:00 +17°C° 0 mm 2 mps 744 mmHg 88%
    23:00 +17°C° 0 mm 2 mps 744 mmHg 90%

    Tomorrow, 17 June, Monday

    Time Temperature Precipitation Wind Pressure Humidity
    00:00 +16°C° 0 mm 2 mps 744 mmHg 92%
    01:00 +16°C° 0 mm 2 mps 744 mmHg 92%
    02:00 +15°C° 0 mm 1 mps 744 mmHg 93%
    03:00 +15°C° 0 mm 1 mps 745 mmHg 93%
    04:00 +15°C° 0 mm 1 mps 745 mmHg 92%
    05:00 +16°C° 0 mm 1 mps 745 mmHg 91%
    06:00 +16°C° 0 mm 1 mps 744 mmHg 90%
    07:00 +19°C° 0 mm 1 mps 745 mmHg 84%
    08:00 +21°C° 0 mm 1 mps 745 mmHg 78%
    09:00 +20°C° 0 mm 0 mps 745 mmHg 71%
    10:00 +23°C° 0 mm 1 mps 745 mmHg 67%
    11:00 +24°C° 0 mm 1 mps 745 mmHg 63%
    12:00 +25°C° 0 mm 1 mps 745 mmHg 58%
    13:00 +25°C° 0.1 mm 1 mps 745 mmHg 58%
    14:00 +25°C° 0.1 mm 2 mps 745 mmHg 57%
    15:00 +26°C° 0.1 mm 2 mps 745 mmHg 57%
    16:00 +25°C° 0.1 mm 2 mps 744 mmHg 60%
    17:00 +25°C° 0.1 mm 2 mps 744 mmHg 64%
    18:00 +25°C° 0.1 mm 2 mps 744 mmHg 68%
    19:00 +23°C° 0 mm 2 mps 744 mmHg 71%
    20:00 +22°C° 0 mm 1 mps 744 mmHg 75%
    21:00 +20°C° 0 mm 1 mps 744 mmHg 79%
    22:00 +20°C° 0 mm 1 mps 744 mmHg 79%
    23:00 +19°C° 0 mm 1 mps 744 mmHg 80%

    Day after tomorrow, 18 June, Tuesday

    Time Temperature Precipitation Wind Pressure Humidity
    00:00 +19°C° 0 mm 1 mps 744 mmHg 81%
    01:00 +18°C° 0 mm 1 mps 744 mmHg 83%
    02:00 +18°C° 0 mm 1 mps 744 mmHg 85%
    03:00 +16°C° 0 mm 1 mps 744 mmHg 87%
    04:00 +18°C° 0 mm 1 mps 744 mmHg 87%
    05:00 +19°C° 0 mm 1 mps 744 mmHg 87%
    06:00 +19°C° 0 mm 1 mps 744 mmHg 86%
    07:00 +20°C° 0 mm 2 mps 744 mmHg 82%
    08:00 +21°C° 0 mm 2 mps 744 mmHg 78%
    09:00 +24°C° 0 mm 3 mps 744 mmHg 74%
    10:00 +24°C° 0.1 mm 3 mps 744 mmHg 71%
    11:00 +25°C° 0.1 mm 3 mps 744 mmHg 68%
    12:00 +26°C° 0.1 mm 3 mps 744 mmHg 65%
    13:00 +26°C° 0.4 mm 3 mps 743 mmHg 68%
    14:00 +26°C° 0.4 mm 3 mps 743 mmHg 71%
    15:00 +26°C° 0.4 mm 3 mps 742 mmHg 74%
    16:00 +26°C° 0.4 mm 4 mps 742 mmHg 76%
    17:00 +25°C° 0.4 mm 4 mps 742 mmHg 79%
    18:00 +25°C° 0.4 mm 4 mps 742 mmHg 82%
    19:00 +22°C° 0 mm 3 mps 742 mmHg 86%
    20:00 +21°C° 0 mm 3 mps 742 mmHg 89%
    21:00 +20°C° 0 mm 3 mps 743 mmHg 93%
    22:00 +19°C° 0 mm 3 mps 743 mmHg 94%
    23:00 +19°C° 0 mm 3 mps 743 mmHg 94%

    19 June, Wednesday

    Time Temperature Precipitation Wind Pressure Humidity
    00:00 +19°C° 0 mm 3 mps 743 mmHg 94%
    01:00 +18°C° 0 mm 3 mps 743 mmHg 94%
    02:00 +17°C° 0 mm 3 mps 743 mmHg 94%
    03:00 +17°C° 0 mm 3 mps 744 mmHg 94%
    04:00 +17°C° 0 mm 3 mps 744 mmHg 92%
    05:00 +17°C° 0 mm 3 mps 744 mmHg 90%
    06:00 +17°C° 0 mm 3 mps 744 mmHg 89%
    07:00 +19°C° 0 mm 3 mps 745 mmHg 83%
    08:00 +21°C° 0 mm 3 mps 745 mmHg 78%
    09:00 +22°C° 0 mm 3 mps 745 mmHg 72%
    10:00 +25°C° 0 mm 3 mps 745 mmHg 66%
    11:00 +26°C° 0 mm 3 mps 746 mmHg 61%
    12:00 +27°C° 0 mm 3 mps 746 mmHg 55%
    13:00 +27°C° 0 mm 3 mps 746 mmHg 55%
    14:00 +27°C° 0 mm 3 mps 746 mmHg 56%
    15:00 +27°C° 0 mm 3 mps 745 mmHg 56%
    16:00 +26°C° 0 mm 3 mps 745 mmHg 60%
    17:00 +26°C° 0 mm 3 mps 745 mmHg 64%
    18:00 +26°C° 0 mm 3 mps 745 mmHg 68%
    19:00 +24°C° 0 mm 3 mps 745 mmHg 71%
    20:00 +21°C° 0 mm 3 mps 746 mmHg 75%
    21:00 +19°C° 0 mm 2 mps 746 mmHg 78%
    22:00 +18°C° 0 mm 2 mps 746 mmHg 79%
    23:00 +18°C° 0 mm 2 mps 746 mmHg 81%

    20 June, Thursday

    Time Temperature Precipitation Wind Pressure Humidity
    00:00 +18°C° 0 mm 1 mps 746 mmHg 82%
    01:00 +16°C° 0 mm 1 mps 746 mmHg 84%
    02:00 +16°C° 0 mm 1 mps 746 mmHg 86%
    03:00 +16°C° 0 mm 1 mps 746 mmHg 87%
    04:00 +16°C° 0 mm 2 mps 746 mmHg 86%
    05:00 +17°C° 0 mm 2 mps 747 mmHg 85%
    06:00 +17°C° 0 mm 2 mps 747 mmHg 84%
    07:00 +19°C° 0 mm 2 mps 747 mmHg 78%
    08:00 +21°C° 0 mm 2 mps 747 mmHg 72%
    09:00 +24°C° 0 mm 2 mps 747 mmHg 66%
    10:00 +25°C° 0 mm 2 mps 747 mmHg 62%
    11:00 +26°C° 0 mm 2 mps 748 mmHg 58%
    12:00 +27°C° 0 mm 2 mps 748 mmHg 53%
    13:00 +27°C° 0 mm 2 mps 747 mmHg 52%
    14:00 +28°C° 0 mm 2 mps 747 mmHg 51%
    15:00 +28°C° 0 mm 2 mps 747 mmHg 50%
    16:00 +28°C° 0 mm 2 mps 747 mmHg 54%
    17:00 +27°C° 0 mm 2 mps 747 mmHg 59%
    18:00 +27°C° 0 mm 2 mps 747 mmHg 63%
    19:00 +25°C° 0 mm 2 mps 747 mmHg 66%
    20:00 +23°C° 0 mm 2 mps 747 mmHg 68%
    21:00 +21°C° 0 mm 2 mps 747 mmHg 71%
    22:00 +20°C° 0 mm 2 mps 747 mmHg 73%
    23:00 +19°C° 0 mm 2 mps 747 mmHg 76%

    21 June, Friday

    Time Temperature Precipitation Wind Pressure Humidity
    00:00 +19°C° 0 mm 2 mps 747 mmHg 79%
    01:00 +19°C° 0 mm 1 mps 747 mmHg 81%
    02:00 +19°C° 0 mm 1 mps 748 mmHg 84%
    03:00 +18°C° 0 mm 1 mps 748 mmHg 86%
    04:00 +19°C° 0 mm 1 mps 748 mmHg 85%
    05:00 +20°C° 0 mm 1 mps 748 mmHg 84%
    06:00 +20°C° 0 mm 1 mps 748 mmHg 83%
    07:00 +22°C° 0 mm 1 mps 748 mmHg 77%
    08:00 +23°C° 0 mm 2 mps 748 mmHg 72%
    09:00 +25°C° 0 mm 2 mps 748 mmHg 66%
    10:00 +26°C° 0 mm 2 mps 748 mmHg 62%
    11:00 +27°C° 0 mm 2 mps 749 mmHg 57%
    12:00 +28°C° 0 mm 2 mps 749 mmHg 53%
    13:00 +28°C° 0 mm 2 mps 748 mmHg 52%
    14:00 +28°C° 0 mm 2 mps 748 mmHg 51%
    15:00 +29°C° 0 mm 2 mps 748 mmHg 50%
    16:00 +29°C° 0 mm 2 mps 748 mmHg 53%
    17:00 +28°C° 0 mm 1 mps 748 mmHg 56%
    18:00 +28°C° 0 mm 1 mps 748 mmHg 59%
    19:00 +26°C° 0 mm 1 mps 748 mmHg 62%
    20:00 +25°C° 0 mm 1 mps 748 mmHg 65%
    21:00 +23°C° 0 mm 1 mps 748 mmHg 68%
    22:00 +22°C° 0 mm 1 mps 748 mmHg 71%
    23:00 +21°C° 0 mm 1 mps 748 mmHg 73%
    Show more